Regional Weather Roundup
Issued by NWS Cleveland, OH

Home | Current Version | Previous Version | Text Only | Print | Product List | Glossary Off
Versions: 1 2 3 4 5 6 7 8 9 10 11 12 13 14 15 16 17 18 19 20 21 22 23 24 25 26 27 28 29 30 31 32 33 34 35 36 37 38 39 40 41 42 43 44 45 46 47 48 49 50

000
ASUS41 KCLE 272010
RWRCLE
OHIO REGIONAL WEATHER ROUNDUP
NATIONAL WEATHER SERVICE WILMINGTON, OH
400 PM EDT MON MAR 27 2017

NOTE: "FAIR" INDICATES FEW OR NO CLOUDS BELOW 12,000 FEET WITH NO
SIGNIFICANT WEATHER AND/OR OBSTRUCTIONS TO VISIBILITY.

OHZ001>008-015>018-024>027-034-035-043-044-272100-
   NORTHWEST OHIO

CITY           SKY/WX    TMP DP  RH WIND       PRES   REMARKS
DEFIANCE       CLOUDY    59  48  67 SW8       29.90F
FINDLAY        CLOUDY    62  49  62 SW8       29.91S
TOLEDO EXPRESS CLOUDY    59  48  67 W10       29.90F
TOLEDO EXEC    CLOUDY    61  50  67 SW10      29.91F
LIMA           FAIR      61  51  70 SW6       29.90F
$$

OHZ009>014-019>023-028>033-038-089-272100-
   NORTHEAST OHIO

CITY           SKY/WX    TMP DP  RH WIND       PRES   REMARKS
CLE-HOPKINS    CLOUDY    62  48  60 SW9       29.94F
CLE-LAKEFRONT  PTSUNNY   51  48  89 NW3       29.92F
CUY CO. ARPT   PTSUNNY   61  52  72 W9        29.92F
LORAIN-ELYRIA  CLOUDY    60  48  64 SW14      29.92F
ASHTABULA      CLOUDY    59  52  77 W5        29.93F
AKRON-CANTON   PTSUNNY   63  47  55 W13       29.93F
WOOSTER        FAIR      61  49  64 W9        29.93F
MANSFIELD      PTSUNNY   61  49  64 SW10      29.93F
YOUNGSTOWN     PTSUNNY   62  47  57 SW12      29.92F
$$

OHZ042-051>053-060>062-070>072-077>081-272100-
  SOUTHWEST OHIO

CITY           SKY/WX    TMP DP  RH WIND       PRES   REMARKS
CINC-COVINGTON PTSUNNY   66  55  67 S9        29.88F
CINC-LUNKEN    PTSUNNY   68  56  65 SE10      29.89F
HAMILTON       CLOUDY    67  53  61 VRB3      29.90F
DAYTON         PTSUNNY   63  47  55 S3        29.90F
WRIGHT-PAT AFB FAIR      67  50  56 CALM      29.89F
DAYTON GENERAL FAIR      65  51  60 MISG      29.89F
WILMINGTON     FAIR      62  52  69 SE7       29.90F
$$

OHZ036-037-039>041-045>050-054>059-063>069-073>076-082>088-272100-
  CENTRAL AND SOUTHEAST OHIO

CITY           SKY/WX    TMP DP  RH WIND       PRES   REMARKS
COLUMBUS       PTSUNNY   66  51  58 S6        29.91F
OSU AIRPORT    FAIR      65  51  60 SW3       29.90F
BOLTON FIELD   MOSUNNY   64  52  63 S5        29.92F
RICKENBACK AFB PTSUNNY   64  51  64 S8        29.92F
NEWARK         FAIR      64  51  62 W6        29.91F
MARION         PTSUNNY   62  49  62 CALM      29.92F
LANCASTER      PTSUNNY   66  52  60 MISG      29.93F
ZANESVILLE     FAIR      67  50  54 W7        29.92F
NEW PHILLY     PTSUNNY   65  49  56 VRB5      29.93F
$$




USA.gov is the U.S. government's official web portal to all federal, state and local government web resources and services.